Weather History for Hartford, CT

Change the Weather History Date:

Thursday, August 21, 2014

  Actual Average Record
Temperature  
Mean Temperature 72 °F -  
Max Temperature 79 °F 80 °F 97 °F (1955)
Min Temperature 64 °F 57 °F 43 °F (1984)
Cooling Degree Days 6    
Growing Degree Days 22 (Base 50)    
Moisture  
Dew Point 61 °F    
Average Humidity 72    
Maximum Humidity 90    
Minimum Humidity 52    
Precipitation  
Precipitation 0.00 in - - ()
Sea Level Pressure  
Sea Level Pressure 30.05 in    
Wind  
Wind Speed 3 mph (SSE)    
Max Wind Speed 8 mph    
Max Gust Speed -    
Visibility 10 miles    
Events      
Averages and records for this station are not official NWS values.
T = Trace of Precipitation, MM = Missing Value Source: NWS Daily Summary

Daily Weather History Graph

Daily Weather History Graph

Search for Another Location

Airport:

Trip Planner

Search our weather history database for the weather conditions in past years. The results will help you decide how hot, cold, wet, or windy it might be!

Date:

Astronomy

Aug. 21, 2014 Rise Set
Actual Time 6:05 AM EDT 7:41 PM EDT
Civil Twilight 5:35 AM EDT 8:10 PM EDT
Nautical Twilight 5:00 AM EDT 8:46 PM EDT
Astronomical Twilight 4:22 AM EDT 9:24 PM EDT
Moon 2:31 AM EDT (8/21) 5:09 PM EDT (8/21)
Length of Visible Light 14h 35m
Length of Day
13h 36m
Waning Crescent, 13% of the Moon is Illuminated
Aug 21
Waning Crescent
Aug 25
New
Sep 2
First Quarter
Sep 8
Full
Sep 15
Last Quarter

Hourly Weather History & Observations

Time (EDT) Temp. Dew Point Humidity Pressure Visibility Wind Dir Wind Speed Gust Speed Precip Events Conditions
12:53 AM 64.9 °F 59.0 °F 81% 30.05 in 10.0 mi Calm Calm - N/A   Clear
1:53 AM 66.0 °F 61.0 °F 84% 30.04 in 10.0 mi Calm Calm - N/A   Clear
2:53 AM 64.9 °F 60.1 °F 84% 30.05 in 10.0 mi SE 3.5 mph - 0.00 in   Clear
3:53 AM 64.9 °F 60.1 °F 84% 30.04 in 10.0 mi Calm Calm - N/A   Mostly Cloudy
4:53 AM 64.9 °F 60.1 °F 84% 30.05 in 10.0 mi Calm Calm - N/A   Mostly Cloudy
5:53 AM 64.0 °F 61.0 °F 90% 30.06 in 10.0 mi ESE 3.5 mph - N/A   Mostly Cloudy
6:53 AM 64.9 °F 61.0 °F 87% 30.06 in 10.0 mi Calm Calm - N/A   Mostly Cloudy
7:53 AM 66.9 °F 61.0 °F 81% 30.07 in 10.0 mi Calm Calm - N/A   Mostly Cloudy
8:53 AM 69.1 °F 61.0 °F 75% 30.07 in 10.0 mi Calm Calm - N/A   Overcast
9:53 AM 71.1 °F 62.1 °F 73% 30.07 in 10.0 mi SSE 3.5 mph - N/A   Overcast
10:53 AM 73.9 °F 60.1 °F 62% 30.07 in 10.0 mi South 4.6 mph - N/A   Overcast
11:53 AM 75.9 °F 59.0 °F 56% 30.06 in 10.0 mi South 4.6 mph - N/A   Scattered Clouds
12:53 PM 77.0 °F 59.0 °F 54% 30.05 in 10.0 mi Calm Calm - N/A   Mostly Cloudy
1:53 PM 79.0 °F 60.1 °F 52% 30.04 in 10.0 mi SSE 5.8 mph - N/A   Overcast
2:53 PM 78.1 °F 60.1 °F 54% 30.03 in 10.0 mi SSE 8.1 mph - N/A   Overcast
3:53 PM 77.0 °F 59.0 °F 54% 30.02 in 10.0 mi SSE 6.9 mph - N/A   Overcast
4:53 PM 75.9 °F 61.0 °F 60% 30.03 in 10.0 mi SSE 8.1 mph - N/A   Overcast
5:53 PM 75.0 °F 62.1 °F 64% 30.03 in 10.0 mi South 8.1 mph - N/A   Overcast
6:53 PM 73.0 °F 63.0 °F 71% 30.03 in 10.0 mi SSE 6.9 mph - N/A   Overcast
7:53 PM 72.0 °F 64.0 °F 76% 30.04 in 10.0 mi SSE 6.9 mph - N/A   Overcast
8:53 PM 71.1 °F 63.0 °F 75% 30.05 in 10.0 mi SSE 5.8 mph - N/A   Overcast
9:53 PM 70.0 °F 62.1 °F 76% 30.04 in 10.0 mi SE 6.9 mph - 0.00 in   Overcast
10:53 PM 70.0 °F 61.0 °F 73% 30.06 in 10.0 mi SSE 5.8 mph - N/A   Overcast
11:53 PM 69.1 °F 61.0 °F 75% 30.06 in 10.0 mi SSE 4.6 mph - N/A   Overcast